Satellite-Ground Cal/Val Region Overpasses Predictions

Prediction of Satellite NPP Overpassing Cal/Val Region: PacNW

Region Location: (Latitude: 10.00, Longitude: 139.50) to (Latitude: 22.70, Longitude: 165.60).

Table of predicted overpasses for the next 14.0 days since TLE Epoch: 3/27/2020
Interval Starting Time Starting Location Ending Time Ending Location
1 03/27/2020 15:48:57 ( 22.65, 147.59) 03/27/2020 15:52:32 ( 10.03, 144.58)
2 03/28/2020 02:58:02 ( 10.02, 155.11) 03/28/2020 03:01:37 ( 22.64, 152.11)
3 03/28/2020 15:29:54 ( 22.69, 152.35) 03/28/2020 15:33:30 ( 10.01, 149.34)
4 03/29/2020 02:39:00 ( 10.04, 159.87) 03/29/2020 02:42:35 ( 22.66, 156.87)
5 03/29/2020 15:10:53 ( 22.68, 157.11) 03/29/2020 15:14:28 ( 10.06, 154.10)
6 03/30/2020 02:19:59 ( 10.05, 164.62) 03/30/2020 02:23:34 ( 22.67, 161.62)
7 03/30/2020 14:51:51 ( 22.66, 161.86) 03/30/2020 14:55:26 ( 10.04, 158.86)
8 03/31/2020 03:42:26 ( 10.02, 144.01) 03/31/2020 03:46:02 ( 22.70, 141.00)
9 03/31/2020 14:34:01 ( 18.48, 165.59) 03/31/2020 14:36:25 ( 10.02, 163.61)
10 03/31/2020 16:14:19 ( 22.70, 141.25) 03/31/2020 16:16:22 ( 15.48, 139.50)
11 04/01/2020 03:23:25 ( 10.03, 148.77) 04/01/2020 03:27:00 ( 22.65, 145.76)
12 04/01/2020 15:55:17 ( 22.68, 146.01) 04/01/2020 15:58:53 ( 10.00, 142.99)
13 04/02/2020 03:04:23 ( 10.05, 153.52) 04/02/2020 03:07:58 ( 22.67, 150.52)
14 04/02/2020 15:36:16 ( 22.67, 150.76) 04/02/2020 15:39:51 ( 10.05, 147.76)
15 04/03/2020 02:45:21 ( 10.01, 158.29) 04/03/2020 02:48:57 ( 22.69, 155.27)
16 04/03/2020 15:17:15 ( 22.65, 155.51) 04/03/2020 15:20:50 ( 10.03, 152.51)
17 04/04/2020 02:26:19 ( 10.02, 163.04) 04/04/2020 02:29:54 ( 22.65, 160.04)
18 04/04/2020 14:58:12 ( 22.69, 160.28) 04/04/2020 15:01:48 ( 10.01, 157.26)
19 04/05/2020 02:09:58 ( 19.44, 165.59) 04/05/2020 02:10:53 ( 22.67, 164.79)
20 04/05/2020 03:48:48 ( 10.05, 142.42) 04/05/2020 03:52:17 ( 22.32, 139.50)
21 04/05/2020 14:39:11 ( 22.67, 165.03) 04/05/2020 14:42:46 ( 10.05, 162.03)
22 04/05/2020 16:20:41 ( 22.67, 139.66) 04/05/2020 16:20:51 ( 22.08, 139.51)
23 04/06/2020 03:29:45 ( 10.01, 147.18) 04/06/2020 03:33:21 ( 22.69, 144.17)
24 04/06/2020 16:01:39 ( 22.65, 144.41) 04/06/2020 16:05:14 ( 10.03, 141.41)
25 04/07/2020 03:10:44 ( 10.03, 151.94) 04/07/2020 03:14:19 ( 22.65, 148.94)
26 04/07/2020 15:42:37 ( 22.69, 149.18) 04/07/2020 15:46:13 ( 10.01, 146.16)
27 04/08/2020 02:51:42 ( 10.05, 156.69) 04/08/2020 02:55:17 ( 22.67, 153.69)
28 04/08/2020 15:23:35 ( 22.67, 153.93) 04/08/2020 15:27:10 ( 10.05, 150.93)
29 04/09/2020 02:32:40 ( 10.01, 161.46) 04/09/2020 02:36:16 ( 22.69, 158.44)
30 04/09/2020 15:04:34 ( 22.65, 158.68) 04/09/2020 15:08:09 ( 10.03, 155.68)
31 04/10/2020 02:14:25 ( 12.73, 165.59) 04/10/2020 02:17:14 ( 22.65, 163.21)


NCC Satellite Cal/Val Overpasses Prediction Service
